Flag for Germany Weather past 2 weeks in Waren (Müritz), Mecklenburg-Western Pomerania, Germany

Now
63 °F

Passing clouds.


Feels Like: 63 °F
Forecast: 49 / 56 °F
Wind: 17 mph from Northwest

Location: Laage

Current Time: Sep 21, 2014 at 6:27:51 PM

Latest Report: Sep 21, 2014 at 5:20 PM


Visibility: N/A

Pressure: 29.83 "Hg

Humidity: 59%

Dew point: 48 °F

Location of Waren (Müritz)Location

Historic Weather in Waren (Müritz) — Graph

°F

Waren (Müritz) temperature yesterday

Maximum temperature yesterday: 72 °F (at 2:20 PM)
Minimum temperature yesterday: 52 °F (at 5:20 AM)
Average temperature yesterday: 59 °F

Past Weeks' High & Low Weather Summary

 TemperatureHumidityPressure
High79 °F (Sep 6, 5:20 PM)100% (Sep 7, 9:20 PM)30.21 "Hg (Sep 7, 9:20 PM)
Low48 °F (Sep 11, 6:20 AM)45% (Sep 6, 5:20 PM)29.83 "Hg (Sep 21, 5:20 AM)
Average61 °F84%30.04 "Hg
* Reported Sep 6 5:20 PM — Sep 21 5:20 PM, Waren (Müritz), Weather by CustomWeather, © 2014

Note: Actual official high and low records may vary slightly from our data, if they occured in-between our weather recording intervals... More about our weather records

Advertising

Waren (Müritz) weather history for previous 24 hours

 ConditionsComfort  
Time TempWeatherWind HumidityBarometerVisibility
5:20 PM
Sep 21
63 °FPassing clouds.17 mph59%29.83 "HgN/A
4:20 PM63 °FPassing clouds.20 mph64%29.83 "HgN/A
3:20 PM63 °FScattered clouds.20 mph64%29.83 "HgN/A
2:20 PM63 °FPartly sunny.18 mph73%29.86 "HgN/A
1:20 PM61 °FScattered showers. Partly sunny.12 mph94%29.86 "Hg4 mi
12:49 PM61 °FRain showers. Partly sunny.14 mph83%29.86 "Hg2 mi
12:20 PM61 °FPartly sunny.10 mph88%29.86 "Hg4 mi
11:20 AM63 °FPartly sunny.12 mph83%29.86 "Hg4 mi
10:20 AM61 °FFog.12 mph94%29.86 "Hg3 mi
9:57 AM61 °FFog.8 mph94%29.83 "Hg2 mi
9:20 AM59 °FFog.6 mph100%29.83 "Hg1 mi
8:20 AM57 °FLight rain. Fog.7 mph100%29.83 "Hg1 mi
7:20 AM54 °FThundershowers. Fog.5 mph100%29.83 "Hg1 mi
6:20 AM54 °FFog.3 mph100%29.83 "Hg0 mi
5:20 AM52 °FFog.2 mph100%29.83 "Hg1 mi
4:20 AM55 °FPassing clouds.1 mph100%29.86 "Hg4 mi
3:20 AM57 °FPassing clouds.2 mph94%29.86 "Hg4 mi
2:20 AM59 °FLight rain. Fog.5 mph94%29.89 "Hg3 mi
1:20 AM54 °FFog.No wind100%29.89 "Hg1 mi
12:20 AM55 °FFog.No wind100%29.89 "Hg3 mi
11:20 PM
Sep 20
57 °FPassing clouds.No wind94%29.89 "Hg6 mi
10:20 PM57 °FPassing clouds.1 mph94%29.89 "Hg6 mi
9:20 PM59 °FPassing clouds.1 mph88%29.92 "HgN/A
8:20 PM61 °FPassing clouds.5 mph88%29.89 "HgN/A
7:20 PM64 °FScattered clouds.7 mph83%29.89 "HgN/A
Weather by CustomWeather, © 2014

See weather overviewHow to use our weather pages